| time (UTC) | temp F | wind direction | speed knots | gust knots | rain 1hr in | rain 24hr in | rain mn in | humidity % | barometer mb |
| 20260906194556 | 100 | 132 | 3.5 | 8.7 | 0.00 | 0.00 | 0.00 | 36 | 1014.2 |
| 20260906193056 | 100 | 89 | 2.6 | 7.0 | 0.00 | 0.00 | 0.00 | 36 | 1014.5 |
| 20260906191552 | 99 | 288 | 2.6 | 7.8 | 0.00 | 0.00 | 0.00 | 36 | 1014.7 |
| 20260906190134 | 99 | 32 | 1.7 | 7.0 | 0.00 | 0.00 | 0.00 | 38 | 1014.9 |
| 20260906184558 | 98 | 253 | 1.7 | 6.1 | 0.00 | 0.00 | 0.00 | 39 | 1015.2 |
| 20260906183106 | 98 | 349 | 3.5 | 7.0 | 0.00 | 0.00 | 0.00 | 39 | 1015.3 |
| 20260906181553 | 98 | 307 | 0.9 | 6.1 | 0.00 | 0.00 | 0.00 | 39 | 1015.7 |
| 20260906180050 | 98 | 98 | 0.9 | 7.0 | 0.00 | 0.00 | 0.00 | 39 | 1016.1 |
| 20260906174600 | 97 | 0 | 0.9 | 7.8 | 0.00 | 0.00 | 0.00 | 42 | 1016.3 |
| 20260906173102 | 96 | 169 | 3.5 | 9.6 | 0.00 | 0.00 | 0.00 | 42 | 1016.7 |
| 20260906171554 | 96 | 96 | 0.9 | 6.1 | 0.00 | 0.00 | 0.00 | 42 | 1016.9 |
| 20260906170100 | 96 | 31 | 3.5 | 7.8 | 0.00 | 0.00 | 0.00 | 44 | 1017.2 |
| 20260906164553 | 95 | 55 | 0.9 | 5.2 | 0.00 | 0.00 | 0.00 | 45 | 1017.3 |
| 20260906163057 | 94 | 343 | 2.6 | 7.8 | 0.00 | 0.00 | 0.00 | 46 | 1017.4 |
| 20260906161553 | 94 | 344 | 1.7 | 7.0 | 0.00 | 0.00 | 0.00 | 46 | 1017.3 |
| 20260906160052 | 94 | 352 | 2.6 | 6.1 | 0.00 | 0.00 | 0.00 | 46 | 1017.4 |
| 20260906154604 | 94 | 295 | 1.7 | 6.1 | 0.00 | 0.00 | 0.00 | 46 | 1017.3 |
| 20260906153057 | 92 | 309 | 0.9 | 4.3 | 0.00 | 0.00 | 0.00 | 50 | 1017.4 |
| 20260906151558 | 91 | 244 | 0.9 | 3.5 | 0.00 | 0.00 | 0.00 | 51 | 1017.1 |
| 20260906150101 | 88 | 197 | 1.7 | 3.5 | 0.00 | 0.00 | 0.00 | 54 | 1017.1 |
| 20260906144557 | 87 | 213 | 0.0 | 3.5 | 0.00 | 0.00 | 0.00 | 59 | 1017.1 |
| 20260906143055 | 85 | 142 | 1.7 | 4.3 | 0.00 | 0.00 | 0.00 | 59 | 1017.0 |
| 20260906141553 | 84 | 159 | 1.7 | 3.5 | 0.00 | 0.00 | 0.00 | 64 | 1017.0 |
| 20260906140051 | 82 | 134 | 0.9 | 3.5 | 0.00 | 0.00 | 0.00 | 67 | 1017.0 |
| 20260906134558 | 80 | 100 | 0.0 | 3.5 | 0.00 | 0.00 | 0.00 | 69 | 1016.8 |
| 20260906133116 | 78 | 0 | 0.0 | 0.9 | 0.00 | 0.00 | 0.00 | 73 | 1016.9 |
| 20260906131600 | 75 | 287 | 0.0 | 0.9 | 0.00 | 0.00 | 0.00 | 78 | 1016.7 |
| 20260906130110 | 73 | 0 | 0.0 | 0.9 | 0.00 | 0.00 | 0.00 | 82 | 1016.8 |
| 20260906124557 | 72 | 0 | 0.0 | 0.0 | 0.00 | 0.00 | 0.00 | 84 | 1016.4 |
| 20260906123057 | 71 | 0 | 0.0 | 0.9 | 0.00 | 0.00 | 0.00 | 83 | 1016.2 |
| 20260906121558 | 70 | 0 | 0.0 | 0.0 | 0.00 | 0.00 | 0.00 | 83 | 1016.0 |
| 20260906120054 | 71 | 0 | 0.0 | 1.7 | 0.00 | 0.00 | 0.00 | 83 | 1015.6 |
| 20260906114601 | 70 | 0 | 0.0 | 0.0 | 0.00 | 0.00 | 0.00 | 84 | 1015.3 |
| 20260906113101 | 70 | 0 | 0.0 | 0.0 | 0.00 | 0.00 | 0.00 | 84 | 1015.0 |
| 20260906111555 | 70 | 0 | 0.0 | 0.0 | 0.00 | 0.00 | 0.00 | 83 | 1015.0 |
| 20260906104557 | 71 | 0 | 0.0 | 0.0 | 0.00 | 0.00 | 0.00 | 82 | 1015.2 |
| 20260906103056 | 71 | 0 | 0.0 | 0.0 | 0.00 | 0.00 | 0.00 | 81 | 1015.2 |
| 20260906101556 | 71 | 0 | 0.0 | 0.0 | 0.00 | 0.00 | 0.00 | 81 | 1015.2 |
| 20260906100053 | 71 | 0 | 0.0 | 0.0 | 0.00 | 0.00 | 0.00 | 80 | 1015.2 |
| 20260906094607 | 71 | 0 | 0.0 | 0.0 | 0.00 | 0.00 | 0.00 | 80 | 1015.1 |
| 20260906093118 | 72 | 0 | 0.0 | 0.0 | 0.00 | 0.00 | 0.00 | 80 | 1014.9 |
| 20260906091554 | 72 | 0 | 0.0 | 0.0 | 0.00 | 0.00 | 0.00 | 79 | 1015.0 |
| 20260906090134 | 72 | 0 | 0.0 | 0.0 | 0.00 | 0.00 | 0.00 | 78 | 1015.0 |
| 20260906084616 | 73 | 0 | 0.0 | 1.7 | 0.00 | 0.00 | 0.00 | 78 | 1015.1 |
| 20260906083057 | 73 | 0 | 0.0 | 0.0 | 0.00 | 0.00 | 0.00 | 77 | 1015.0 |
| 20260906081600 | 73 | 0 | 0.0 | 0.0 | 0.00 | 0.00 | 0.00 | 77 | 1015.0 |
| 20260906080105 | 73 | 0 | 0.0 | 0.0 | 0.00 | 0.00 | 0.00 | 75 | 1014.8 |
| 20260906074559 | 74 | 0 | 0.0 | 0.0 | 0.00 | 0.00 | 0.00 | 75 | 1014.7 |
| 20260906073055 | 74 | 0 | 0.0 | 0.0 | 0.00 | 0.00 | 0.00 | 74 | 1014.6 |
| 20260906071557 | 75 | 0 | 0.0 | 0.0 | 0.00 | 0.00 | 0.00 | 73 | 1014.5 |
| 20260906070056 | 75 | 0 | 0.0 | 0.0 | 0.00 | 0.00 | 0.00 | 71 | 1014.6 |
| 20260906064552 | 76 | 0 | 0.0 | 0.0 | 0.00 | 0.00 | 0.00 | 70 | 1014.7 |
| 20260906063059 | 77 | 0 | 0.0 | 0.0 | 0.00 | 0.00 | 0.00 | 70 | 1014.5 |
| 20260906061606 | 77 | 0 | 0.0 | 0.0 | 0.00 | 0.00 | 0.00 | 68 | 1014.7 |
| 20260906060055 | 78 | 0 | 0.0 | 0.0 | 0.00 | 0.00 | 0.00 | 67 | 1014.9 |
| 20260906054601 | 79 | 0 | 0.0 | 0.0 | 0.00 | 0.00 | 0.00 | 67 | 1014.9 |
| 20260906053110 | 79 | 138 | 0.0 | 0.9 | 0.00 | 0.00 | 0.00 | 66 | 1014.8 |
| 20260906051554 | 79 | 0 | 0.0 | 1.7 | 0.00 | 0.00 | 0.00 | 67 | 1014.9 |
| 20260906050053 | 79 | 0 | 0.0 | 0.0 | 0.00 | 0.00 | 0.00 | 67 | 1014.9 |
| 20260906044604 | 80 | 0 | 0.0 | 0.0 | 0.00 | 0.00 | 0.00 | 65 | 1014.9 |
| 20260906043058 | 81 | 0 | 0.0 | 0.0 | 0.00 | 0.00 | 0.00 | 63 | 1014.9 |
| 20260906041558 | 82 | 0 | 0.0 | 0.0 | 0.00 | 0.00 | 0.00 | 61 | 1014.9 |
| 20260906040055 | 83 | 0 | 0.0 | 1.7 | 0.00 | 0.00 | 0.00 | 61 | 1014.7 |
| 20260906034550 | 83 | 132 | 0.0 | 2.6 | 0.00 | 0.00 | 0.00 | 59 | 1014.5 |
| 20260906033059 | 83 | 128 | 0.0 | 2.6 | 0.00 | 0.00 | 0.00 | 59 | 1014.4 |
| 20260906031553 | 83 | 150 | 0.9 | 4.3 | 0.00 | 0.00 | 0.00 | 60 | 1014.1 |
| 20260906030055 | 82 | 0 | 0.0 | 0.0 | 0.00 | 0.00 | 0.00 | 62 | 1014.2 |
| 20260906024613 | 83 | 0 | 0.0 | 0.9 | 0.00 | 0.00 | 0.00 | 61 | 1014.2 |
| 20260906023104 | 83 | 98 | 0.9 | 1.7 | 0.00 | 0.00 | 0.00 | 61 | 1013.8 |
| 20260906021555 | 84 | 106 | 0.0 | 1.7 | 0.00 | 0.00 | 0.00 | 58 | 1013.6 |
| 20260906020053 | 85 | 0 | 0.0 | 2.6 | 0.00 | 0.00 | 0.00 | 59 | 1013.3 |
| 20260906014559 | 86 | 0 | 0.0 | 0.0 | 0.00 | 0.00 | 0.00 | 55 | 1013.2 |
| 20260906013058 | 87 | 0 | 0.0 | 0.0 | 0.00 | 0.00 | 0.00 | 54 | 1013.0 |
| 20260906011600 | 88 | 0 | 0.0 | 0.9 | 0.00 | 0.00 | 0.00 | 53 | 1012.9 |
| 20260906010126 | 89 | 0 | 0.0 | 0.9 | 0.00 | 0.00 | 0.00 | 51 | 1012.9 |
| 20260906004555 | 91 | 90 | 0.9 | 2.6 | 0.00 | 0.00 | 0.00 | 48 | 1012.8 |
| 20260906003054 | 93 | 0 | 0.0 | 1.7 | 0.00 | 0.00 | 0.00 | 45 | 1012.8 |
| 20260906001606 | 94 | 155 | 0.0 | 2.6 | 0.00 | 0.00 | 0.00 | 43 | 1012.8 |
| 20260906000101 | 96 | 188 | 1.7 | 5.2 | 0.00 | 0.00 | 0.00 | 41 | 1012.8 |
| 20260905234600 | 97 | 177 | 2.6 | 7.8 | 0.00 | 0.00 | 0.00 | 39 | 1012.8 |
| 20260905233055 | 98 | 131 | 3.5 | 7.0 | 0.00 | 0.00 | 0.00 | 37 | 1012.9 |
| 20260905231552 | 99 | 146 | 5.2 | 11.3 | 0.00 | 0.00 | 0.00 | 36 | 1012.8 |
| 20260905230122 | 100 | 192 | 4.3 | 9.6 | 0.00 | 0.00 | 0.00 | 35 | 1012.8 |
| 20260905224603 | 100 | 224 | 3.5 | 9.6 | 0.00 | 0.00 | 0.00 | 36 | 1012.8 |
| 20260905223053 | 100 | 176 | 3.5 | 9.6 | 0.00 | 0.00 | 0.00 | 36 | 1012.7 |
| 20260905221557 | 100 | 202 | 4.3 | 9.6 | 0.00 | 0.00 | 0.00 | 35 | 1012.8 |
| 20260905220057 | 101 | 208 | 5.2 | 9.6 | 0.00 | 0.00 | 0.00 | 35 | 1012.6 |
| 20260905214553 | 100 | 217 | 3.5 | 10.4 | 0.00 | 0.00 | 0.00 | 37 | 1012.4 |
| 20260905213105 | 98 | 182 | 1.7 | 6.1 | 0.00 | 0.00 | 0.00 | 38 | 1012.6 |
| 20260905211558 | 100 | 175 | 6.1 | 9.6 | 0.00 | 0.00 | 0.00 | 37 | 1012.9 |
| 20260905210057 | 99 | 181 | 0.9 | 8.7 | 0.00 | 0.00 | 0.00 | 38 | 1013.1 |
| 20260905204552 | 99 | 206 | 5.2 | 9.6 | 0.00 | 0.00 | 0.00 | 38 | 1013.5 |
| 20260905203104 | 98 | 165 | 6.1 | 13.0 | 0.00 | 0.00 | 0.00 | 39 | 1013.9 |
| 20260905201605 | 100 | 219 | 3.5 | 8.7 | 0.00 | 0.00 | 0.00 | 39 | 1014.0 |